Miscellaneous Local Product
Issued by NWS Hastings, NE

Home | Current Version | Previous Version | Text Only | Print | Product List | Glossary Off
Versions: 1 2 3 4 5 6 7 8 9 10 11 12 13 14 15 16 17 18 19 20 21 22 23 24 25 26 27 28 29 30 31 32 33 34 35 36 37 38 39 40 41 42 43 44 45 46 47 48 49 50

000
AXUS43 KGID 282202
MISGRI

GID CWA HOURLY WEATHER ROUNDUP
NATIONAL WEATHER SERVICE HASTINGS NE
400 PM CST WED JAN 28 2015

NOTE: "FAIR" INDICATES FEW OR NO CLOUDS BELOW 12,000 FEET WITH NO
SIGNIFICANT WEATHER AND/OR OBSTRUCTIONS TO VISIBILITY.

...SOUTH CENTRAL NEBRASKA...

CITY           SKY/WX    TMP DP  RH WIND       PRES   REMARKS
GRAND ISLAND   SUNNY     68  33  27 NW18      29.72R
HASTINGS       SUNNY     69  29  22 NW21      29.72R
KEARNEY        SUNNY     68  32  26 NW23      29.75R
ORD            SUNNY     65  29  25 NW21G32   29.74R
YORK           SUNNY     64  36  34 NW15      29.69R
AURORA         SUNNY     67  33  29 NW15      29.71R
LEXINGTON      SUNNY     68  32  26 NW26G32   29.79R
HOLDREGE       SUNNY     67  31  25 NW22G30   29.77R
HEBRON         SUNNY     69  28  22 W14       29.71R

...NEBRASKA PANHANDLE...

CITY           SKY/WX    TMP DP  RH WIND       PRES   REMARKS
CHADRON        CLOUDY    52  32  46 NW20G32   30.02R
ALLIANCE       PTSUNNY   53  30  41 N23G36    30.00R
SCOTTSBLUFF    CLOUDY    47  38  71 NW21G29   30.08R
SIDNEY         PTSUNNY   53  35  50 NW29G45   30.03R

...WESTERN AND NORTH CENTRAL NEBRASKA...

CITY           SKY/WX    TMP DP  RH WIND       PRES   REMARKS
VALENTINE      PTSUNNY   58  27  30 NW21G28   29.85R
AINSWORTH      MOSUNNY   58  28  31 NW24G35   29.81R
ONEILL         SUNNY     62  37  38 NW21G28   29.73R
BROKEN BOW     SUNNY     65  33  30 N22G36    29.79R
IMPERIAL       PTSUNNY   62  32  32 NW28G39   29.92R
NORTH PLATTE   MOSUNNY   62  29  28 NW25G36   29.86R
MCCOOK         SUNNY     67  32  27 NW26G37   29.85R

...EASTERN NEBRASKA...

CITY           SKY/WX    TMP DP  RH WIND       PRES   REMARKS
NORFOLK        MOSUNNY   64  36  35 NW16      29.66R
SO SIOUX CITY  PTSUNNY   52  36  54 S5        29.67S
TEKAMAH        PTSUNNY   55  36  48 S8        29.67S
COLUMBUS       SUNNY     64  37  36 NW6       29.69R
ALBION         SUNNY     66  32  28 NW17G23   29.68R
OMAHA EPPLEY   PTSUNNY   58  36  43 SW3       29.68R
OFFUTT AFB     PTSUNNY   58  37  44 S2        29.67R
MILLARD        PTSUNNY   60  37  42 SW7       29.68R
LINCOLN        MOSUNNY   62  35  36 W14       29.70R
NEBRASKA CITY  PTSUNNY   65  30  27 SW13      29.65F
BEATRICE       MOSUNNY   64  35  34 W13       29.69R
FALLS CITY     PTSUNNY   67  38  34 W12       29.65F

...NORTHERN KANSAS...

CITY           SKY/WX    TMP DP  RH WIND       PRES   REMARKS
GOODLAND       SUNNY     63  31  30 NW36G48   29.95R
HILL CITY      SUNNY     71  29  21 NW20G31   29.83R
NORTON         CLEAR     68  25  19 NW29G38   29.81
PHILLIPSBURG   SUNNY     73  32  21 W26G35    29.79R
SMITH CENTER   SUNNY     72  32  23 NW22G28   29.76S
BELOIT         SUNNY     73  30  20 NW14G20   29.74S
HAYS           SUNNY     72  28  20 NW21G30   29.81S
RUSSELL        SUNNY     72  31  22 NW24G33   29.79R
CONCORDIA      SUNNY     71  33  24 NW15      29.72R
SALINA         SUNNY     73  32  22 NW8       29.76S
TOPEKA         PTSUNNY   73  38  27 SW22G33   29.70R



USA.gov is the U.S. government's official web portal to all federal, state and local government web resources and services.